Terminal Aerodrome Forecast
Issued by NWS

Home | Current Version | Previous Version | Text Only | Print | Product List | Glossary On
Versions: 1 2 3 4 5 6 7 8 9 10 11 12 13 14 15 16 17 18 19 20 21 22 23 24 25 26 27 28 29 30 31 32 33 34 35 36 37 38 39 40 41
000
FTUS45 KBOU 012320
TAFAPA
TAF
KAPA 012320Z 0200/0224 19006KT P6SM SCT120
     FM020200 15006KT P6SM FEW120
     FM020500 20006KT P6SM FEW200
     FM021200 VRB05KT P6SM FEW200
     FM021900 15006KT P6SM FEW200=

USA.gov is the U.S. government's official web portal to all federal, state and local government web resources and services.